EJU851F LFST-LFMN

Flight info

Callsign EJU851F
Flight time 1h 4m
Altitude 31000
Route AMDOQ DCT MOROK DCT GILIR DCT GEVEA DCT KOGAS DCT MEDAM/N0471F290 DCT VEVAR
Aircraft A320/M-SDE3FGHIRWY/LB1

Departure

Time 2026-05-01 12:11
Airport Strasbourg Airport (LFST)

Arrival

Time 2026-05-01 13:16
Airport Nice-Côte d'Azur Airport (LFMN)
Time Latitude Longitude Altitude Speed Heading
2026-05-01 11:47 48.54455 7.62897 512 ft 0 kts 304°
2026-05-01 11:51 48.54455 7.62898 512 ft 0 kts 304°
2026-05-01 11:59 48.54443 7.62925 512 ft 4 kts 303°
2026-05-01 11:59 48.54428 7.62959 512 ft 4 kts 303°
2026-05-01 12:00 48.54403 7.63016 512 ft 4 kts 303°
2026-05-01 12:00 48.54389 7.63050 512 ft 4 kts 306°
2026-05-01 12:00 48.54357 7.63105 512 ft 1 kts 318°
2026-05-01 12:01 48.54354 7.63109 512 ft 0 kts 318°
2026-05-01 12:03 48.54365 7.63094 512 ft 5 kts 318°
2026-05-01 12:04 48.54386 7.63011 512 ft 12 kts 264°
2026-05-01 12:04 48.54333 7.62896 512 ft 12 kts 227°
2026-05-01 12:04 48.54273 7.62841 512 ft 10 kts 182°
2026-05-01 12:04 48.54218 7.62878 512 ft 8 kts 141°
2026-05-01 12:05 48.54178 7.62928 512 ft 7 kts 149°
2026-05-01 12:05 48.54069 7.62837 512 ft 15 kts 228°
2026-05-01 12:05 48.54004 7.62724 512 ft 13 kts 229°
2026-05-01 12:06 48.53950 7.62631 512 ft 11 kts 229°
2026-05-01 12:06 48.53901 7.62547 512 ft 10 kts 229°
2026-05-01 12:06 48.53880 7.62512 512 ft 9 kts 229°
2026-05-01 12:07 48.53870 7.62494 512 ft 9 kts 229°
2026-05-01 12:07 48.53832 7.62429 512 ft 8 kts 229°
2026-05-01 12:07 48.53794 7.62364 512 ft 11 kts 229°
2026-05-01 12:08 48.53731 7.62256 512 ft 17 kts 229°
2026-05-01 12:08 48.53639 7.62099 512 ft 22 kts 229°
2026-05-01 12:08 48.53536 7.61922 512 ft 23 kts 228°
2026-05-01 12:08 48.53442 7.61761 512 ft 19 kts 228°
2026-05-01 12:09 48.53358 7.61616 512 ft 18 kts 229°
2026-05-01 12:09 48.53277 7.61490 512 ft 14 kts 205°
2026-05-01 12:09 48.53228 7.61489 512 ft 5 kts 163°
2026-05-01 12:09 48.53203 7.61512 512 ft 5 kts 140°
2026-05-01 12:10 48.53165 7.61566 512 ft 8 kts 136°
2026-05-01 12:10 48.53159 7.61671 512 ft 3 kts 47°
2026-05-01 12:10 48.53165 7.61682 512 ft 3 kts 49°
2026-05-01 12:11 48.53680 7.62561 512 ft 120 kts 49°
2026-05-01 12:11 48.54339 7.63687 683 ft 154 kts 47°
2026-05-01 12:11 48.55043 7.64883 1389 ft 152 kts 48°
2026-05-01 12:12 48.55783 7.66131 1844 ft 170 kts 49°
2026-05-01 12:12 48.56625 7.67547 2103 ft 193 kts 49°
2026-05-01 12:12 48.57580 7.69148 2436 ft 213 kts 49°
2026-05-01 12:12 48.58790 7.70532 3105 ft 228 kts 21°
2026-05-01 12:13 48.60358 7.70546 3990 ft 230 kts 340°
2026-05-01 12:13 48.61692 7.69227 4854 ft 231 kts 316°
2026-05-01 12:13 48.62778 7.67438 5641 ft 233 kts 300°
2026-05-01 12:13 48.63200 7.65110 6397 ft 232 kts 266°
2026-05-01 12:14 48.62914 7.62741 7126 ft 230 kts 244°
2026-05-01 12:14 48.62066 7.60751 7860 ft 229 kts 225°
2026-05-01 12:14 48.61013 7.58934 8626 ft 231 kts 226°
2026-05-01 12:14 48.60098 7.56911 9361 ft 237 kts 244°
2026-05-01 12:15 48.59657 7.54455 9933 ft 254 kts 264°
2026-05-01 12:15 48.59721 7.51651 10270 ft 279 kts 273°
2026-05-01 12:15 48.59865 7.48607 10572 ft 303 kts 273°
2026-05-01 12:15 48.60019 7.45307 10837 ft 327 kts 272°
2026-05-01 12:16 48.60151 7.41760 11071 ft 350 kts 268°
2026-05-01 12:16 48.59688 7.38070 11288 ft 367 kts 245°
2026-05-01 12:16 48.58305 7.34835 11800 ft 371 kts 223°
2026-05-01 12:16 48.56222 7.32563 12472 ft 371 kts 206°
2026-05-01 12:17 48.53909 7.30785 13185 ft 374 kts 204°
2026-05-01 12:17 48.51567 7.29032 13873 ft 379 kts 203°
2026-05-01 12:17 48.49186 7.27275 14483 ft 383 kts 204°
2026-05-01 12:17 48.46778 7.25503 15069 ft 386 kts 204°
2026-05-01 12:18 48.44352 7.23714 15665 ft 390 kts 204°
2026-05-01 12:18 48.41908 7.21905 16247 ft 393 kts 205°
2026-05-01 12:18 48.39444 7.20079 16824 ft 397 kts 205°
2026-05-01 12:18 48.36993 7.18259 17371 ft 400 kts 205°
2026-05-01 12:19 48.34485 7.16395 17939 ft 403 kts 204°
2026-05-01 12:19 48.31958 7.14516 18477 ft 407 kts 205°
2026-05-01 12:19 48.29408 7.12622 18944 ft 411 kts 205°
2026-05-01 12:19 48.26838 7.10713 19408 ft 414 kts 204°
2026-05-01 12:20 48.24247 7.08793 19883 ft 417 kts 205°
2026-05-01 12:20 48.21636 7.06867 20343 ft 420 kts 205°
2026-05-01 12:20 48.19005 7.04935 20784 ft 423 kts 205°
2026-05-01 12:20 48.16348 7.02984 21216 ft 426 kts 205°
2026-05-01 12:21 48.13677 7.01022 21643 ft 429 kts 205°
2026-05-01 12:21 48.10983 6.99048 22069 ft 432 kts 205°
2026-05-01 12:21 48.08270 6.97062 22487 ft 436 kts 205°
2026-05-01 12:21 48.05536 6.95060 22883 ft 439 kts 205°
2026-05-01 12:22 48.02786 6.93043 23285 ft 442 kts 205°
2026-05-01 12:22 48.00015 6.91011 23677 ft 445 kts 205°
2026-05-01 12:22 47.97219 6.88963 24009 ft 448 kts 206°
2026-05-01 12:22 47.94409 6.86910 24352 ft 450 kts 205°
2026-05-01 12:23 47.91590 6.84854 24715 ft 452 kts 206°
2026-05-01 12:23 47.88793 6.82820 25033 ft 455 kts 205°
2026-05-01 12:23 47.85902 6.80723 25353 ft 457 kts 205°
2026-05-01 12:23 47.83079 6.78676 25706 ft 459 kts 205°
2026-05-01 12:24 47.80168 6.76568 26005 ft 461 kts 205°
2026-05-01 12:24 47.77281 6.74481 26356 ft 461 kts 205°
2026-05-01 12:24 47.74433 6.72420 26749 ft 461 kts 205°
2026-05-01 12:24 47.71544 6.70331 27078 ft 463 kts 205°
2026-05-01 12:25 47.68644 6.68238 27391 ft 464 kts 205°
2026-05-01 12:25 47.62812 6.64039 28014 ft 466 kts 205°
2026-05-01 12:25 47.59898 6.61947 28455 ft 465 kts 205°
2026-05-01 12:26 47.56996 6.59867 28922 ft 462 kts 205°
2026-05-01 12:26 47.51223 6.55736 29796 ft 460 kts 205°
2026-05-01 12:26 47.48346 6.53682 30192 ft 459 kts 205°
2026-05-01 12:27 47.39742 6.47542 30283 ft 457 kts 205°
2026-05-01 12:28 47.31172 6.41456 30283 ft 455 kts 205°
2026-05-01 12:29 47.22622 6.35385 30283 ft 455 kts 205°
2026-05-01 12:29 47.14116 6.29389 30281 ft 453 kts 204°
2026-05-01 12:30 47.05418 6.24075 30275 ft 451 kts 192°
2026-05-01 12:31 46.99199 6.22958 30273 ft 451 kts 184°
2026-05-01 12:31 46.92939 6.22132 30274 ft 451 kts 185°
2026-05-01 12:32 46.86687 6.21288 30285 ft 451 kts 185°
2026-05-01 12:32 46.77314 6.20038 30284 ft 451 kts 184°
2026-05-01 12:33 46.71069 6.19213 30288 ft 450 kts 184°
2026-05-01 12:33 46.64826 6.18393 30287 ft 450 kts 184°
2026-05-01 12:34 46.58586 6.17570 30287 ft 450 kts 184°
2026-05-01 12:34 46.52344 6.16748 30288 ft 450 kts 184°
2026-05-01 12:35 46.46101 6.15932 30289 ft 450 kts 184°
2026-05-01 12:35 46.39855 6.15113 30299 ft 450 kts 185°
2026-05-01 12:36 46.33616 6.14291 30300 ft 450 kts 185°
2026-05-01 12:36 46.27416 6.13766 30301 ft 449 kts 176°
2026-05-01 12:37 46.21324 6.15598 30300 ft 449 kts 159°
2026-05-01 12:37 46.19224 6.16828 30299 ft 449 kts 158°
2026-05-01 12:38 46.13432 6.20217 30299 ft 449 kts 158°
2026-05-01 12:38 46.07629 6.23591 30277 ft 450 kts 158°
2026-05-01 12:39 46.01828 6.26964 30277 ft 450 kts 158°
2026-05-01 12:39 45.96015 6.30328 30277 ft 451 kts 159°
2026-05-01 12:40 45.90184 6.33690 30277 ft 452 kts 158°
2026-05-01 12:40 45.84342 6.37058 30276 ft 454 kts 158°
2026-05-01 12:41 45.78750 6.41184 30277 ft 454 kts 145°
2026-05-01 12:41 45.73635 6.46418 30276 ft 453 kts 145°
2026-05-01 12:42 45.68490 6.51662 30283 ft 455 kts 145°
2026-05-01 12:42 45.63328 6.56907 30284 ft 454 kts 145°
2026-05-01 12:43 45.58182 6.62122 30291 ft 454 kts 146°
2026-05-01 12:43 45.54077 6.66266 30290 ft 458 kts 145°
2026-05-01 12:44 45.48865 6.71513 30304 ft 459 kts 145°
2026-05-01 12:45 45.38432 6.82012 30307 ft 459 kts 144°
2026-05-01 12:45 45.33203 6.87248 30331 ft 460 kts 145°
2026-05-01 12:46 45.27826 6.92141 30330 ft 459 kts 155°
2026-05-01 12:46 45.21730 6.94728 30346 ft 459 kts 173°
2026-05-01 12:47 45.15343 6.95725 30343 ft 464 kts 174°
2026-05-01 12:47 45.08924 6.96731 30346 ft 465 kts 174°
2026-05-01 12:48 45.02488 6.97748 30349 ft 465 kts 173°
2026-05-01 12:48 44.96056 6.98765 30360 ft 465 kts 174°
2026-05-01 12:49 44.89604 6.99763 30358 ft 467 kts 174°
2026-05-01 12:49 44.83136 7.00768 30379 ft 468 kts 174°
2026-05-01 12:50 44.77772 7.01658 30380 ft 466 kts 172°
2026-05-01 12:50 44.71347 7.03139 30377 ft 469 kts 170°
2026-05-01 12:51 44.64920 7.04810 30377 ft 469 kts 169°
2026-05-01 12:52 44.55230 7.06710 30371 ft 469 kts 173°
2026-05-01 12:52 44.45535 7.08385 29854 ft 472 kts 173°
2026-05-01 12:53 44.39015 7.09473 28744 ft 472 kts 173°
2026-05-01 12:53 44.35740 7.10020 28066 ft 474 kts 173°
2026-05-01 12:53 44.32465 7.10557 27279 ft 475 kts 173°
2026-05-01 12:54 44.29164 7.11077 26297 ft 478 kts 173°
2026-05-01 12:54 44.22538 7.12053 24373 ft 479 kts 173°
2026-05-01 12:54 44.19242 7.12508 23357 ft 469 kts 172°
2026-05-01 12:55 44.12979 7.13295 21268 ft 438 kts 173°
2026-05-01 12:55 44.09993 7.13654 20466 ft 421 kts 173°
2026-05-01 12:55 44.07158 7.13988 19983 ft 399 kts 173°
2026-05-01 12:56 44.04511 7.14690 19527 ft 377 kts 157°
2026-05-01 12:56 44.02251 7.16396 19043 ft 367 kts 144°
2026-05-01 12:56 44.00150 7.18376 18587 ft 363 kts 143°
2026-05-01 12:56 43.98068 7.20366 18135 ft 362 kts 143°
2026-05-01 12:57 43.96007 7.22343 17682 ft 359 kts 143°
2026-05-01 12:57 43.91917 7.26280 16709 ft 357 kts 143°
2026-05-01 12:57 43.89907 7.28218 16203 ft 357 kts 143°
2026-05-01 12:58 43.87870 7.30186 15714 ft 357 kts 143°
2026-05-01 12:58 43.85833 7.32153 15218 ft 356 kts 143°
2026-05-01 12:58 43.83820 7.34104 14732 ft 347 kts 143°
2026-05-01 12:59 43.80029 7.37758 13997 ft 318 kts 143°
2026-05-01 12:59 43.78233 7.39472 13485 ft 310 kts 143°
2026-05-01 12:59 43.74725 7.42785 13333 ft 306 kts 143°
2026-05-01 13:00 43.71209 7.46076 13323 ft 305 kts 143°
2026-05-01 13:00 43.69446 7.47722 12968 ft 306 kts 143°
2026-05-01 13:01 43.65929 7.51070 12324 ft 302 kts 143°
2026-05-01 13:01 43.64204 7.52707 12333 ft 300 kts 143°
2026-05-01 13:01 43.60758 7.55958 12338 ft 300 kts 143°
2026-05-01 13:02 43.59033 7.57583 12337 ft 300 kts 143°
2026-05-01 13:07 43.31305 7.30964 3396 ft 216 kts 316°
2026-05-01 13:07 43.32385 7.29628 3275 ft 207 kts 333°
2026-05-01 13:07 43.33581 7.28500 3156 ft 208 kts 333°
2026-05-01 13:08 43.34740 7.27389 3070 ft 198 kts 333°
2026-05-01 13:08 43.35827 7.26338 2990 ft 184 kts 334°
2026-05-01 13:08 43.36832 7.25362 2999 ft 173 kts 334°
2026-05-01 13:08 43.37808 7.24423 3006 ft 170 kts 335°
2026-05-01 13:09 43.38772 7.23501 3013 ft 169 kts 335°
2026-05-01 13:09 43.39735 7.22578 3006 ft 168 kts 335°
2026-05-01 13:09 43.40694 7.21654 3003 ft 170 kts 334°
2026-05-01 13:09 43.41671 7.20719 3012 ft 171 kts 334°
2026-05-01 13:10 43.42648 7.19787 3010 ft 171 kts 333°
2026-05-01 13:10 43.43622 7.18855 3011 ft 170 kts 333°
2026-05-01 13:10 43.44593 7.17924 3010 ft 170 kts 334°
2026-05-01 13:10 43.45570 7.17002 3011 ft 169 kts 338°
2026-05-01 13:11 43.46629 7.16391 3011 ft 162 kts 355°
2026-05-01 13:11 43.47727 7.16198 3015 ft 158 kts
2026-05-01 13:11 43.48826 7.16097 3013 ft 158 kts
2026-05-01 13:11 43.49926 7.15993 3012 ft 159 kts
2026-05-01 13:12 43.51036 7.15887 3013 ft 160 kts
2026-05-01 13:12 43.52153 7.15780 2859 ft 161 kts
2026-05-01 13:12 43.53243 7.15673 2619 ft 159 kts
2026-05-01 13:12 43.54353 7.15566 2391 ft 161 kts
2026-05-01 13:13 43.55446 7.15459 2185 ft 151 kts
2026-05-01 13:13 43.56456 7.15354 1959 ft 142 kts
2026-05-01 13:13 43.57431 7.15232 1715 ft 140 kts
2026-05-01 13:13 43.58392 7.15160 1519 ft 137 kts
2026-05-01 13:14 43.59336 7.15194 1339 ft 136 kts
2026-05-01 13:14 43.60280 7.15262 1163 ft 137 kts
2026-05-01 13:14 43.61233 7.15364 985 ft 139 kts 11°
2026-05-01 13:14 43.62106 7.15853 815 ft 137 kts 48°
2026-05-01 13:15 43.62731 7.16811 767 ft 134 kts 56°
2026-05-01 13:15 43.63338 7.17811 639 ft 136 kts 52°
2026-05-01 13:15 43.64004 7.18768 430 ft 138 kts 50°
2026-05-01 13:15 43.64674 7.19688 256 ft 137 kts 49°
2026-05-01 13:16 43.65341 7.20620 48 ft 135 kts 47°
2026-05-01 13:16 43.65946 7.21461 21 ft 102 kts 44°
2026-05-01 13:16 43.66287 7.21919 22 ft 40 kts 38°
2026-05-01 13:17 43.66521 7.22052 21 ft 0 kts 355°
2026-05-01 13:17 43.66522 7.22052 21 ft 0 kts 354°
2026-05-01 13:18 43.66554 7.22018 22 ft 13 kts 302°
2026-05-01 13:18 43.66507 7.21904 21 ft 18 kts 224°
2026-05-01 13:18 43.66428 7.21799 21 ft 13 kts 224°
2026-05-01 13:18 43.66365 7.21712 21 ft 12 kts 225°
2026-05-01 13:19 43.66309 7.21633 21 ft 11 kts 225°
2026-05-01 13:19 43.66258 7.21563 21 ft 10 kts 224°
2026-05-01 13:19 43.66169 7.21441 21 ft 10 kts 225°
2026-05-01 13:20 43.66102 7.21349 21 ft 17 kts 225°
2026-05-01 13:20 43.66007 7.21218 21 ft 19 kts 225°
2026-05-01 13:20 43.65904 7.21078 21 ft 22 kts 224°
2026-05-01 13:21 43.65805 7.20875 21 ft 10 kts 304°
2026-05-01 13:21 43.65864 7.20848 21 ft 9 kts 351°
2026-05-01 13:21 43.65921 7.20836 21 ft 8 kts 351°
2026-05-01 13:21 43.65972 7.20825 21 ft 7 kts 351°
2026-05-01 13:22 43.66018 7.20800 21 ft 7 kts 316°
2026-05-01 13:22 43.66037 7.20745 22 ft 6 kts 291°
2026-05-01 13:22 43.66046 7.20711 22 ft 0 kts 290°